Location: R�o Medio
(42.4667°N, 3.0167°W)
Time: 10:24:08
(UTC+00:00)

Cosmos 2242 Rocket - Pass Details

Date: 27 February 2020
Orbit: 619 x 651 km, 82.5° (Epoch: 04 April)

Event Time Altitude Azimuth Distance (km) Brightness Sun altitude
Rises 18:57:23 0° 349° (N) 2,966 7.2 -11.6°
Reaches altitude 10° 18:59:38 10° 348° (NNW) 2,055 6.4 -12.0°
Maximum altitude 19:04:11 73° 264° (W) 681 3.9 -12.9°
Drops below altitude 10° 19:08:44 10° 180° (S) 2,048 6.2 -13.7°
Sets 19:10:59 0° 179° (S) 2,955 7.0 -14.1°
